Find ARGOS

NORAD ID: 25634 Int'l Des: 1999-008 Owner: SMCTV Country: US operational
LEOCIRCULARRETROGRADESSO

現在のビュー

3D地球を読み込み中...

ARGOSについて

説明を読み込み中...

次回通過

Passes for default location (London). Set your location on the main map for personalized predictions.

高度履歴

Loading altitude history...

軌道要素

1 25634U 99008A 26150.93483114 .00000074 00000-0 54255-4 0 9999
2 25634 98.5116 117.6659 0011333 90.1611 270.0865 14.19985656411857
Epoch: May 30, 2026 • Age: 13 hours

現在のステータス

高度 860.9 km
速度 7.42 km/s
衛星直下点 -75.96°S, 159.63°W
打ち上げ日 Feb 23, 1999
運用期間 27.2 years
タイプ other

技術仕様

分類 Payload
質量 2490.00 kg
乾燥質量 2490.00 kg
総質量 2490.00 kg
長さ 4.00 m
直径 2.00 m
スパン 16.00 m
形状 Box + 2 Pan
製造者 BOSB
バスタイプ P91-1
フェーズステータス In Orbit
所有者/国 SMCTV/US

Most Searched